FW8453 Weather Reports


time (UTC)temp
C
wind
direction
speed
KPH
gust
KPH
rain 1hr
cm
rain 24hr
cm
rain mn
cm
humidity
%
barometer
mb
20260506051101 16 113 0.0 0.0 0.00 0.00 0.00 97 1008.2
20260506050552 16 113 0.0 0.0 0.00 0.00 0.00 96 1008.2
20260506045022 16 113 0.0 0.0 0.00 0.00 0.00 97 1008.3
20260506044524 16 113 0.0 0.0 0.00 0.00 0.00 96 1008.3
20260506044002 16 113 0.0 0.0 0.00 0.00 0.00 96 1008.4
20260506043452 16 113 0.0 0.0 0.00 0.00 0.00 96 1008.5
20260506042941 16 113 0.0 0.0 0.00 0.00 0.00 96 1008.5
20260506042430 16 135 0.0 0.0 0.00 0.00 0.00 96 1008.6
20260506041410 16 135 0.0 0.0 0.00 0.00 0.00 96 1009.1
20260506040901 16 135 0.0 0.0 0.00 0.00 0.00 96 1008.9
20260506040351 15 135 0.0 0.0 0.00 0.00 0.00 96 1008.9
20260506035330 15 135 0.0 3.2 0.00 0.00 0.00 95 1009.4
20260506034820 16 135 0.0 3.2 0.00 0.00 0.00 95 1009.5
20260506034309 16 135 1.6 6.4 0.00 0.00 0.00 95 1009.6
20260506033250 16 135 3.2 6.4 0.00 0.00 0.00 95 1009.5
20260506032739 16 135 3.2 6.4 0.00 0.00 0.00 95 1009.6
20260506032229 16 135 3.2 6.4 0.00 0.00 0.00 95 1009.7
20260506031719 16 135 1.6 3.2 0.00 0.00 0.00 94 1009.7
20260506031209 16 135 3.2 3.2 0.00 0.00 0.00 94 1009.7
20260506030659 16 135 1.6 3.2 0.00 0.00 0.00 95 1009.8
20260506030148 16 135 3.2 3.2 0.00 0.00 0.00 94 1009.9
20260506025639 16 135 3.2 3.2 0.00 0.00 0.00 93 1010.1
20260506024618 16 135 1.6 3.2 0.00 0.00 0.00 93 1010.1
20260506023558 17 135 3.2 3.2 0.00 0.00 0.00 92 1010.0
20260506023048 17 135 3.2 6.4 0.00 0.00 0.00 92 1009.9
20260506022538 17 113 1.6 6.4 0.00 0.00 0.00 92 1010.1
20260506022028 17 113 3.2 3.2 0.00 0.00 0.00 91 1010.2
20260506021517 18 113 0.0 0.0 0.00 0.00 0.00 91 1010.3
20260506015436 18 113 3.2 3.2 0.00 0.00 0.00 89 1010.4
20260506014927 18 135 3.2 3.2 0.00 0.00 0.00 88 1010.1
20260506014417 18 135 1.6 3.2 0.00 0.00 0.00 88 1010.3
20260506013907 18 135 0.0 3.2 0.00 0.00 0.00 88 1010.3
20260506013357 18 135 0.0 3.2 0.00 0.00 0.00 87 1010.4
20260506012337 19 135 1.6 3.2 0.00 0.00 0.00 86 1010.2
20260506011827 19 135 0.0 3.2 0.00 0.00 0.00 86 1010.4
20260506011316 19 135 0.0 3.2 0.00 0.00 0.00 86 1010.4
20260506010807 19 135 0.0 3.2 0.00 0.00 0.00 86 1011.0
20260506005747 19 135 1.6 3.2 0.00 0.00 0.00 86 1010.6
20260506004726 19 135 0.0 3.2 0.00 0.00 0.00 87 1010.7
20260506004216 19 135 0.0 3.2 0.00 0.00 0.00 87 1010.5
20260506003157 19 113 3.2 3.2 0.00 0.00 0.00 86 1010.8
20260506002136 19 135 1.6 3.2 0.00 0.00 0.00 86 1010.7
20260506000605 19 113 0.0 3.2 0.00 0.00 0.00 86 1010.7
20260506000103 19 113 0.0 3.2 0.00 0.00 0.00 86 1010.7
20260505235545 19 113 3.2 6.4 0.00 0.00 0.00 86 1010.6
20260505235035 19 113 3.2 6.4 0.00 0.00 0.00 86 1010.5
20260505234525 19 90 0.0 3.2 0.00 0.00 0.00 85 1010.4
20260505233504 19 90 0.0 3.2 0.00 0.00 0.00 85 1010.4
20260505232955 19 90 1.6 6.4 0.00 0.00 0.00 85 1010.4
20260505232444 19 90 1.6 6.4 0.00 0.00 0.00 85 1010.4
20260505231934 19 113 3.2 3.2 0.00 0.00 0.00 84 1010.4
20260505231425 20 135 0.0 3.2 0.00 0.00 0.00 84 1010.3
20260505230404 20 135 0.0 6.4 0.00 0.00 0.00 84 1010.1
20260505225854 20 68 1.6 14.5 0.00 0.00 0.00 83 1010.0
20260505225343 20 45 3.2 14.5 0.00 0.00 0.00 83 1009.8
20260505224833 20 90 6.4 14.5 0.00 0.00 0.00 83 1009.7
20260505224322 20 68 9.7 17.7 0.00 0.00 0.00 82 1009.8
20260505223813 20 90 3.2 20.9 0.00 0.00 0.00 81 1009.7
20260505223303 20 90 9.7 20.9 0.00 0.00 0.00 81 1009.5
20260505222752 20 90 12.9 20.9 0.00 0.00 0.00 81 1009.4
20260505222243 20 68 3.2 11.3 0.00 0.00 0.00 79 1009.5
20260505221733 20 90 8.0 14.5 0.00 0.00 0.00 77 1009.6
20260505221223 21 68 8.0 14.5 0.00 0.00 0.00 76 1009.4
20260505220713 20 90 6.4 11.3 0.00 0.00 0.00 76 1009.4
20260505220202 20 113 3.2 6.4 0.00 0.00 0.00 79 1009.1
20260505215652 19 135 3.2 6.4 0.00 0.00 0.00 79 1009.4
20260505215141 20 113 3.2 6.4 0.00 0.00 0.00 76 1009.2
20260505214631 20 135 3.2 6.4 0.00 0.00 0.00 77 1009.0
20260505214122 20 135 3.2 6.4 0.00 0.00 0.00 76 1009.2
20260505213612 20 135 3.2 3.2 0.00 0.00 0.00 75 1009.2
20260505213101 21 135 3.2 3.2 0.00 0.00 0.00 74 1009.2
20260505212043 22 135 1.6 6.4 0.00 0.00 0.00 69 1008.9
20260505211531 23 135 1.6 6.4 0.00 0.00 0.00 67 1008.9
20260505211022 23 158 1.6 6.4 0.00 0.00 0.00 65 1008.9
20260505210510 23 135 1.6 6.4 0.00 0.00 0.00 65 1009.0
20260505205450 23 158 3.2 6.4 0.00 0.00 0.00 63 1008.7
20260505204940 23 158 3.2 6.4 0.00 0.00 0.00 63 1008.6
20260505204430 24 158 1.6 12.9 0.00 0.00 0.00 63 1008.6
20260505203920 24 90 3.2 12.9 0.00 0.00 0.00 63 1008.6
20260505203410 24 90 3.2 9.7 0.00 0.00 0.00 63 1008.5
20260505201839 23 68 11.3 14.5 0.00 0.00 0.00 63 1008.7
20260505201329 24 113 6.4 11.3 0.00 0.00 0.00 64 1008.6
20260505200820 24 90 3.2 14.5 0.00 0.00 0.00 63 1008.8
20260505200310 24 90 3.2 14.5 0.00 0.00 0.00 63 1008.8
20260505195759 24 68 4.8 12.9 0.00 0.00 0.00 64 1008.7
20260505195249 24 68 6.4 17.7 0.00 0.00 0.00 63 1008.7
20260505194228 24 90 6.4 17.7 0.00 0.00 0.00 64 1008.5
20260505193719 24 90 9.7 17.7 0.00 0.00 0.00 63 1008.5
20260505193208 24 90 4.8 14.5 0.00 0.00 0.00 62 1008.5
20260505192659 25 90 6.4 12.9 0.00 0.00 0.00 63 1008.5
20260505192149 25 68 4.8 14.5 0.00 0.00 0.00 62 1008.7
20260505191639 25 68 6.4 14.5 0.00 0.00 0.00 63 1008.8
20260505191129 24 68 9.7 12.9 0.00 0.00 0.00 63 1008.6
20260505190618 24 113 6.4 11.3 0.00 0.00 0.00 62 1008.6
20260505185559 25 68 4.8 12.9 0.00 0.00 0.00 62 1008.7
20260505185048 25 68 6.4 9.7 0.00 0.00 0.00 62 1008.6
20260505184027 25 68 3.2 9.7 0.00 0.00 0.00 61 1008.7
20260505183518 25 293 0.0 9.7 0.00 0.00 0.00 64 1008.8
20260505183008 25 135 3.2 11.3 0.00 0.00 0.00 61 1008.5
20260505181947 25 293 3.2 6.4 0.00 0.00 0.00 62 1008.6
20260505180928 25 315 0.0 6.4 0.00 0.00 0.00 60 1008.6
20260505180417 25 315 3.2 6.4 0.00 0.00 0.00 62 1008.4
20260505175907 24 293 3.2 6.4 0.00 0.00 0.00 63 1008.6
20260505175357 25 293 3.2 3.2 0.00 0.00 0.00 58 1008.4
20260505174337 23 293 3.2 6.4 0.00 0.00 0.00 65 1008.5
20260505173829 22 293 4.8 6.4 0.00 0.00 0.00 63 1008.5
20260505173316 23 293 3.2 6.4 0.00 0.00 0.00 61 1008.7
20260505172808 23 293 3.2 6.4 0.00 0.00 0.00 60 1008.8
20260505171747 22 293 3.2 6.4 0.00 0.00 0.00 64 1008.8
20260505171235 23 293 3.2 6.4 0.00 0.00 0.00 71 1009.0
20260505170216 21 293 6.4 6.4 0.00 0.00 0.00 73 1008.8
20260505165705 21 293 6.4 6.4 0.00 0.00 0.00 69 1008.9
20260505165155 23 293 1.6 3.2 0.00 0.00 0.00 67 1009.0
20260505164646 23 270 3.2 6.4 0.00 0.00 0.00 70 1008.9
20260505164136 22 293 1.6 6.4 0.00 0.00 0.00 72 1009.1
20260505163625 21 293 4.8 6.4 0.00 0.00 0.00 72 1009.0
20260505163115 21 293 3.2 6.4 0.00 0.00 0.00 74 1008.9
20260505162605 21 315 3.2 6.4 0.00 0.00 0.00 73 1009.0
20260505161545 21 315 3.2 6.4 0.00 0.00 0.00 74 1009.4
20260505161034 21 0 3.2 6.4 0.00 0.00 0.00 73 1009.6
20260505160524 21 23 3.2 6.4 0.00 0.00 0.00 73 1009.8
20260505152404 20 293 3.2 6.4 0.00 0.00 0.00 71 1010.0
20260505151854 20 0 3.2 3.2 0.00 0.00 0.00 71 1010.1
20260505151343 20 293 1.6 6.4 0.00 0.00 0.00 74 1010.1
20260505150834 20 293 3.2 6.4 0.00 0.00 0.00 72 1010.1
20260505150323 20 338 3.2 6.4 0.00 0.00 0.00 73 1010.1
20260505140631 17 0 3.2 6.4 0.00 0.00 0.00 78 1010.8
20260505140122 17 0 4.8 6.4 0.00 0.00 0.00 78 1011.1
20260505124900 15 293 3.2 6.4 0.00 0.00 0.00 84 1010.2
20260505124349 15 293 3.2 6.4 0.00 0.00 0.00 83 1010.2
20260505123840 15 338 3.2 3.2 0.00 0.00 0.00 83 1010.1
20260505122819 15 0 1.6 6.4 0.00 0.00 0.00 84 1010.0
20260505122309 15 0 3.2 3.2 0.00 0.00 0.00 84 1009.9
20260505121758 14 23 1.6 3.2 0.00 0.00 0.00 85 1010.0
20260505121249 14 45 1.6 3.2 0.00 0.00 0.00 86 1009.7
20260505120228 13 45 1.6 3.2 0.00 0.00 0.00 88 1009.6
20260505115719 13 180 1.6 3.2 0.00 0.00 0.00 88 1009.5
20260505115208 13 180 0.0 6.4 0.00 0.00 0.00 89 1009.7
20260505114148 12 180 3.2 6.4 0.00 0.00 0.00 92 1009.1
20260505113638 12 203 3.2 3.2 0.00 0.00 0.00 93 1009.1
20260505113128 12 225 0.0 3.2 0.00 0.00 0.00 94 1009.1
20260505112618 11 225 0.0 3.2 0.00 0.00 0.00 94 1009.0
20260505112108 11 225 0.0 0.0 0.00 0.00 0.00 94 1009.0
20260505111557 11 225 0.0 0.0 0.00 0.00 0.00 94 1008.9
20260505111048 12 225 0.0 0.0 0.00 0.00 0.00 94 1008.7
20260505110537 12 225 0.0 0.0 0.00 0.00 0.00 94 1008.8
20260505101906 11 158 3.2 6.4 0.00 0.00 0.00 93 1008.1
20260505100337 11 180 1.6 6.4 0.00 0.00 0.00 93 1007.8
20260505095826 11 135 3.2 6.4 0.00 0.00 0.00 92 1007.8
20260505095316 11 135 3.2 6.4 0.00 0.00 0.00 92 1008.0
20260505094806 12 158 3.2 6.4 0.00 0.00 0.00 92 1007.8
20260505094255 12 180 0.0 3.2 0.00 0.00 0.00 91 1007.4
20260505093235 12 180 0.0 6.4 0.00 0.00 0.00 91 1007.7
20260505092725 12 180 1.6 6.4 0.00 0.00 0.00 91 1007.7
20260505092215 12 203 3.2 6.4 0.00 0.00 0.00 90 1007.4
20260505090644 12 248 1.6 3.2 0.00 0.00 0.00 90 1007.0
20260505085625 13 270 1.6 3.2 0.00 0.00 0.00 89 1007.3
20260505085114 13 270 1.6 6.4 0.00 0.00 0.00 89 1007.3
20260505084605 13 270 1.6 6.4 0.00 0.00 0.00 89 1007.2
20260505084054 14 293 0.0 9.7 0.00 0.00 0.00 89 1007.0
20260505083034 15 270 3.2 11.3 0.00 0.00 0.00 88 1007.2
20260505082524 15 293 4.8 11.3 0.00 0.00 0.00 88 1007.2
20260505082014 15 270 3.2 22.5 0.00 0.00 0.00 87 1007.2
20260505081503 15 270 6.4 22.5 0.00 0.00 0.00 85 1007.2
20260505080954 18 315 8.0 17.7 0.00 0.00 0.00 81 1007.0
20260505080443 18 0 9.7 17.7 0.00 0.00 0.00 80 1007.1
20260505075933 18 338 9.7 17.7 0.00 0.00 0.00 80 1007.1
20260505075423 18 0 6.4 20.9 0.00 0.00 0.00 81 1006.9
20260505074914 18 338 11.3 20.9 0.00 0.00 0.00 80 1007.0
20260505074403 18 315 12.9 20.9 0.00 0.00 0.00 80 1006.8
20260505073853 18 338 9.7 22.5 0.00 0.00 0.00 81 1007.0
20260505073343 18 338 9.7 22.5 0.00 0.00 0.00 81 1006.9
20260505072832 18 0 9.7 14.5 0.00 0.00 0.00 81 1007.0
20260505072322 18 338 9.7 17.7 0.00 0.00 0.00 81 1006.8
20260505071302 18 315 11.3 17.7 0.00 0.00 0.00 81 1007.1
20260505070752 18 338 6.4 17.7 0.00 0.00 0.00 81 1007.3
20260505070242 18 338 6.4 25.7 0.00 0.00 0.00 82 1007.1
20260505065731 18 338 12.9 25.7 0.00 0.00 0.00 81 1007.1
20260505065221 18 315 16.1 27.4 0.00 0.00 0.00 80 1007.1
20260505064711 18 338 17.7 27.4 0.00 0.00 0.00 80 1007.0
20260505064201 18 0 16.1 29.0 0.00 0.00 0.00 80 1007.2
20260505063651 18 338 16.1 29.0 0.00 0.00 0.00 79 1007.3
20260505063143 18 338 11.3 25.7 0.00 0.00 0.00 80 1007.2
20260505062631 18 0 12.9 22.5 0.00 0.00 0.00 80 1007.4
20260505062120 18 338 16.1 0.0 0.00 0.00 0.00 80 1007.4
20260505061102 18 338 14.5 29.0 0.00 0.00 0.00 81 1007.3
20260505060552 18 23 14.5 35.4 0.00 0.00 0.00 80 1007.4
20260505060042 18 315 17.7 35.4 0.00 0.00 0.00 80 1007.2